Location: Unspecified
(0.0000°N, 0.0000°E)
Time: 17:04:13
(UTC+00:00)

Vanguard 2 Rocket - Pass Details

Date: 16 December 2017
Orbit: 553 x 3328 km, 32.9° (Epoch: 23 June)

Event Time Altitude Azimuth Distance (km) Brightness Sun altitude
Exits shadow 04:03:07 33° 279° (W) 4,006 9.6 -25.6°
Maximum altitude 04:11:25 56° 220° (SW) 2,666 9.0 -23.8°
Drops below altitude 10° 04:21:59 10° 143° (SE) 3,825 10.9 -21.4°
Sets 04:24:35 0° 138° (SE) 4,505 11.6 -20.8°
